Location: Unspecified
(0.0000°N, 0.0000°E)
Time: 23:46:52
(UTC+00:00)

Envisat - Pass Details

Date: 23 February 2020
Orbit: 764 x 766 km, 98.1° (Epoch: 25 February)

Event Time Altitude Azimuth Distance (km) Brightness Sun altitude
Rises 19:18:36 0° 203° (SSW) 3,230 6.7 -16.1°
Reaches altitude 10° 19:22:07 10° 229° (SW) 2,301 6.4 -16.9°
Maximum altitude 19:24:32 14° 257° (WSW) 2,062 6.4 -17.5°
Drops below altitude 10° 19:26:57 10° 286° (WNW) 2,296 6.4 -18.1°
Sets 19:30:28 0° 312° (NW) 3,217 6.8 -19.0°
